Weather History for Wildwood, NJ

Change the Weather History Date:

Friday, August 29, 2014

  Actual Average Record
Temperature  
Mean Temperature 66 °F -  
Max Temperature 75 °F 77 °F 87 °F (1999)
Min Temperature 57 °F 64 °F 57 °F (2007)
Cooling Degree Days 1    
Growing Degree Days 16 (Base 50)    
Moisture  
Dew Point 53 °F    
Average Humidity 59    
Maximum Humidity 82    
Minimum Humidity 50    
Precipitation  
Precipitation 0.00 in - - ()
Sea Level Pressure  
Sea Level Pressure 30.17 in    
Wind  
Wind Speed 7 mph (NE)    
Max Wind Speed 12 mph    
Max Gust Speed 17 mph    
Visibility 10 miles    
Events      
Averages and records for this station are not official NWS values.
T = Trace of Precipitation, MM = Missing Value Source: NWS Daily Summary

Daily Weather History Graph

Daily Weather History Graph

Search for Another Location

Airport:

Trip Planner

Search our weather history database for the weather conditions in past years. The results will help you decide how hot, cold, wet, or windy it might be!

Date:

Astronomy

Aug. 29, 2014 Rise Set
Actual Time 6:25 AM EDT 7:34 PM EDT
Civil Twilight 5:58 AM EDT 8:02 PM EDT
Nautical Twilight 5:25 AM EDT 8:34 PM EDT
Astronomical Twilight 4:50 AM EDT 9:09 PM EDT
Moon 10:10 AM EDT (8/29) 9:33 PM EDT (8/29)
Length of Visible Light 14h 03m
Length of Day
13h 08m
Waxing Crescent, 15% of the Moon is Illuminated
Aug 29
Waxing Crescent
Sep 2
First Quarter
Sep 8
Full
Sep 15
Last Quarter
Sep 24
New

Hourly Weather History & Observations

Time (EDT) Temp. Dew Point Humidity Pressure Visibility Wind Dir Wind Speed Gust Speed Precip Events Conditions
12:15 AM 66.2 °F 53.6 °F 64% 30.08 in 10.0 mi North 8.1 mph - N/A   Clear
12:35 AM 68.0 °F 51.8 °F 56% 30.09 in 10.0 mi North 9.2 mph - N/A   Clear
12:55 AM 66.2 °F 50.0 °F 56% 30.09 in 10.0 mi North 10.4 mph - N/A   Clear
1:15 AM 66.2 °F 48.2 °F 52% 30.09 in 10.0 mi North 10.4 mph - N/A   Clear
1:35 AM 66.2 °F 48.2 °F 52% 30.09 in 10.0 mi North 11.5 mph 17.3 mph N/A   Clear
1:55 AM 64.4 °F 46.4 °F 52% 30.09 in 10.0 mi North 10.4 mph 16.1 mph N/A   Clear
2:15 AM 64.4 °F 46.4 °F 52% 30.09 in 10.0 mi North 10.4 mph - N/A   Clear
2:35 AM 62.6 °F 46.4 °F 55% 30.09 in 10.0 mi North 8.1 mph - N/A   Clear
2:55 AM 62.6 °F 46.4 °F 55% 30.09 in 10.0 mi North 8.1 mph - N/A   Clear
3:15 AM 62.6 °F 46.4 °F 55% 30.09 in 10.0 mi North 6.9 mph - N/A   Clear
3:35 AM 62.6 °F 46.4 °F 55% 30.09 in 10.0 mi NNW 8.1 mph - N/A   Clear
3:55 AM 62.6 °F 46.4 °F 55% 30.10 in 10.0 mi North 6.9 mph - N/A   Clear
4:15 AM 62.6 °F 46.4 °F 55% 30.10 in 10.0 mi North 5.8 mph - N/A   Clear
4:35 AM 60.8 °F 46.4 °F 59% 30.11 in 10.0 mi North 6.9 mph - N/A   Clear
4:55 AM 60.8 °F 48.2 °F 63% 30.12 in 10.0 mi North 5.8 mph - N/A   Clear
5:15 AM 60.8 °F 48.2 °F 63% 30.12 in 10.0 mi North 6.9 mph - N/A   Clear
5:35 AM 60.8 °F 48.2 °F 63% 30.13 in 10.0 mi North 5.8 mph - N/A   Clear
5:55 AM 60.8 °F 48.2 °F 63% 30.13 in 10.0 mi North 6.9 mph - N/A   Clear
6:15 AM 60.8 °F 48.2 °F 63% 30.15 in 10.0 mi North 3.5 mph - N/A   Clear
6:35 AM 59.0 °F 48.2 °F 67% 30.15 in 10.0 mi North 4.6 mph - N/A   Clear
6:55 AM 57.2 °F 48.2 °F 72% 30.15 in 10.0 mi NNE 5.8 mph - N/A   Clear
7:15 AM 59.0 °F 48.2 °F 67% 30.16 in 10.0 mi North 4.6 mph - N/A   Clear
7:35 AM 60.8 °F 48.2 °F 63% 30.17 in 10.0 mi North 6.9 mph - N/A   Clear
7:55 AM 62.6 °F 48.2 °F 59% 30.17 in 10.0 mi North 10.4 mph - N/A   Clear
8:15 AM 62.6 °F 50.0 °F 63% 30.18 in 10.0 mi North 5.8 mph - N/A   Clear
8:35 AM 64.4 °F 50.0 °F 59% 30.18 in 10.0 mi North 6.9 mph - N/A   Clear
8:55 AM 64.4 °F 51.8 °F 64% 30.18 in 10.0 mi North 9.2 mph - N/A   Clear
9:15 AM 66.2 °F 51.8 °F 60% 30.18 in 10.0 mi NNE 6.9 mph - N/A   Clear
9:35 AM 68.0 °F 51.8 °F 56% 30.19 in 10.0 mi NNE 6.9 mph - N/A   Partly Cloudy
9:55 AM 69.8 °F 53.6 °F 56% 30.19 in 10.0 mi NE 5.8 mph - N/A   Clear
10:15 AM 71.6 °F 53.6 °F 53% 30.20 in 10.0 mi NNE 6.9 mph - N/A   Scattered Clouds
10:35 AM 71.6 °F 53.6 °F 53% 30.19 in 10.0 mi NE 8.1 mph - N/A   Partly Cloudy
10:55 AM 71.6 °F 55.4 °F 57% 30.20 in 10.0 mi NE 9.2 mph - N/A   Partly Cloudy
11:15 AM 71.6 °F 55.4 °F 57% 30.20 in 10.0 mi NE 8.1 mph - N/A   Partly Cloudy
11:35 AM 71.6 °F 53.6 °F 53% 30.20 in 10.0 mi Calm Calm - N/A   Partly Cloudy
11:55 AM 73.4 °F 53.6 °F 50% 30.20 in 10.0 mi NE 9.2 mph - N/A   Mostly Cloudy
12:15 PM 73.4 °F 53.6 °F 50% 30.19 in 10.0 mi Calm Calm - N/A   Overcast
12:35 PM 71.6 °F 55.4 °F 57% 30.19 in 10.0 mi North 5.8 mph - N/A   Overcast
12:55 PM 71.6 °F 55.4 °F 57% 30.19 in 10.0 mi North 4.6 mph - N/A   Overcast
1:15 PM 73.4 °F 55.4 °F 53% 30.20 in 10.0 mi North 4.6 mph - N/A   Overcast
1:35 PM 73.4 °F 55.4 °F 53% 30.20 in 10.0 mi NNW 4.6 mph - N/A   Overcast
1:55 PM 73.4 °F 55.4 °F 53% 30.19 in 10.0 mi North 6.9 mph - N/A   Overcast
2:15 PM 73.4 °F 55.4 °F 53% 30.19 in 10.0 mi ENE 5.8 mph - N/A   Overcast
2:35 PM 73.4 °F 55.4 °F 53% 30.19 in 10.0 mi NNE 6.9 mph - N/A   Overcast
2:55 PM 73.4 °F 55.4 °F 53% 30.19 in 10.0 mi East 6.9 mph - N/A   Overcast
3:15 PM 75.2 °F 55.4 °F 50% 30.18 in 10.0 mi East 9.2 mph - N/A   Scattered Clouds
3:35 PM 75.2 °F 55.4 °F 50% 30.18 in 10.0 mi East 10.4 mph - N/A   Partly Cloudy
3:55 PM 73.4 °F 55.4 °F 53% 30.18 in 10.0 mi East 9.2 mph - N/A   Clear
4:15 PM 73.4 °F 55.4 °F 53% 30.18 in 10.0 mi ESE 8.1 mph - N/A   Clear
4:35 PM 75.2 °F 55.4 °F 50% 30.19 in 10.0 mi East 8.1 mph - N/A   Clear
4:55 PM 73.4 °F 55.4 °F 53% 30.19 in 10.0 mi East 9.2 mph - N/A   Clear
5:15 PM 73.4 °F 55.4 °F 53% 30.20 in 10.0 mi East 9.2 mph - N/A   Clear
5:35 PM 73.4 °F 55.4 °F 53% 30.19 in 10.0 mi East 6.9 mph - N/A   Clear
5:55 PM 73.4 °F 55.4 °F 53% 30.20 in 10.0 mi East 8.1 mph - N/A   Clear
6:15 PM 71.6 °F 55.4 °F 57% 30.20 in 10.0 mi East 8.1 mph - N/A   Clear
6:35 PM 71.6 °F 55.4 °F 57% 30.20 in 10.0 mi East 6.9 mph - N/A   Clear
6:55 PM 71.6 °F 55.4 °F 57% 30.20 in 10.0 mi East 6.9 mph - N/A   Clear
7:15 PM 69.8 °F 55.4 °F 60% 30.21 in 10.0 mi East 5.8 mph - N/A   Clear
7:35 PM 69.8 °F 55.4 °F 60% 30.21 in 10.0 mi ESE 4.6 mph - N/A   Clear
7:55 PM 68.0 °F 55.4 °F 64% 30.21 in 10.0 mi East 4.6 mph - N/A   Clear
8:15 PM 68.0 °F 55.4 °F 64% 30.21 in 10.0 mi ESE 4.6 mph - N/A   Clear
8:35 PM 66.2 °F 55.4 °F 68% 30.22 in 10.0 mi East 4.6 mph - N/A   Clear
8:55 PM 66.2 °F 55.4 °F 68% 30.23 in 10.0 mi East 4.6 mph - N/A   Clear
9:15 PM 66.2 °F 55.4 °F 68% 30.23 in 10.0 mi East 4.6 mph - N/A   Clear
9:35 PM 66.2 °F 55.4 °F 68% 30.24 in 10.0 mi East 4.6 mph - N/A   Clear
9:55 PM 66.2 °F 57.2 °F 73% 30.24 in 10.0 mi East 3.5 mph - N/A   Clear
10:15 PM 64.4 °F 55.4 °F 73% 30.24 in 10.0 mi East 3.5 mph - N/A   Clear
10:35 PM 62.6 °F 55.4 °F 77% 30.24 in 10.0 mi Calm Calm - N/A   Clear
10:55 PM 62.6 °F 55.4 °F 77% 30.24 in 10.0 mi Calm Calm - N/A   Clear
11:15 PM 62.6 °F 55.4 °F 77% 30.25 in 10.0 mi Calm Calm - N/A   Clear
11:35 PM 60.8 °F 55.4 °F 82% 30.25 in 10.0 mi Calm Calm - N/A   Clear
11:55 PM 60.8 °F 55.4 °F 82% 30.25 in 10.0 mi Calm Calm - N/A   Clear